Find Starlink 32723

NORAD ID: 62449 Int'l Des: 2024-251 Owner: SPXS Country: US Constellation: starlink operational
LEOCIRCULAR

現在のビュー

3D地球を読み込み中...

About Starlink 32723

Starlink 32723 (NORAD 62449) is a starlink constellation satellite (v2 mini) launched Dec 29, 2024 by SPXS of US. It operates in LEO, CIRCULAR orbit with a mass of 730.00 kg.

Starlink 32723について

説明を読み込み中...

次回通過

Passes for default location (London). Set your location on the main map for personalized predictions.

高度履歴

Loading altitude history...

軌道要素

1 62449U 24251T 26167.46044810 .00026307 00000-0 78661-3 0 9997
2 62449 53.1607 236.3157 0001353 71.5476 288.5673 15.34415341 82918
Epoch: Jun 16, 2026 • Age: 17 hours

現在のステータス

高度 469.5 km
速度 7.63 km/s
衛星直下点 -22.19°S, 111.59°E
打ち上げ日 Dec 29, 2024
運用期間 1.4 years
タイプ internet

技術仕様

分類 Payload
質量 730.00 kg
乾燥質量 700.00 kg
総質量 730.00 kg
長さ 0.30 m
直径 4.10 m
スパン 29.00 m
形状 Box + pan
製造者 SPXS
バスタイプ Starlink V2M
フェーズステータス In Orbit
所有者/国 SPXS/US

Most Searched